Weather in Tukums

Latvia     56°57′59″N   23°09′15″E
temp.,
°C
wind,
m/s
gust,
m/s
humid.,
%
clouds,
%
prec.,
mm/h
press.,
hPa
HPBL,
m
8 august, mon
mon800:00+12wsw2583100 0.0 1022105
03:00+11sw2589100 0.0 1023101
06:00+13ssw2580100 0.0 1023159
09:00+14ssw2777100 0.0 1023274
12:00+19w345893 0.0 1023937
15:00+21w3344100 0.1 10231749
18:00+19nnw236492 0.4 1024454
21:00+15nw22847 0.7 102432
9 august, tue
tue900:00+12nw22955 0.0 102642
03:00+12wnw22965 0.1 102642
06:00+11wnw22965 0.0 102642
09:00+16nw24774 0.0 1027320
12:00+20nne34619 0.4 10271151
15:00+21nne445123 0.4 10261355
18:00+20nne34480 0.0 1026910
21:00+15n23760 0.0 102764
10 august, wed
wed1000:00+13nw22870 0.0 102725
03:00+12nw22910 0.0 102737
06:00+12nw23913 0.0 102759
09:00+19n23651 0.0 1027447
12:00+22ne2251100 0.0 10271502
15:00+22ne3346100 0.0 10261270
18:00+21ene3350100 0.0 1026629
21:00+16ene2271100 0.0 102535
11 august, thu
thu1100:00+14se117641 0.0 102511
03:00+13s228398 0.0 102546
06:00+12wsw258819 0.0 102588
09:00+19ssw35555 0.0 1025357
12:00+24sw453445 0.0 10241349
15:00+27sw342613 0.0 10231759
18:00+26wsw3433100 0.0 10221938
21:00+19wnw24625 0.0 102356
12 august, fri
fri1200:00+15sw237296 0.0 102356
03:00+14sw3872100 0.0 1024137
06:00+13sw387366 0.0 1024140
09:00+20sw375633 0.0 1023342
12:00+26sw35385 0.0 10231244
15:00+29wsw233216 0.0 10221874
18:00+28nw22355 0.0 10212013
21:00+19nne257799 0.0 102287